[[{"header":{"parameterUnit":"m.s-1","parameterCategory":1,"la1":30.2991,"la2":30.254,"lo1":-89.0895,"lo2":-89.0444,"dy":0.0017,"dx":0.0017,"nx":28,"ny":28,"refTime":"2023-10-21T03:00:00:Z","depth":0,"parameterNumber":2,"parameterNumberName":"U-component_of_WINDS"},"data":[0,0,0,0,0,0,0,0,0,0,0,0,0,0,0,0,0,0,0,0,0,0,0,0,0,0,0,0,0,0,0,0,0,0,0,0,0,0,0,0,0,0,0,0,0,0,0,0,0,0,0,0,0,0,0,0,0,0,0.5262,0.5262,0,0.524,0.5239,0.5239,0.5178,0.5177,0.5175,0.5174,0.5151,0.5152,0.5152,0,0,0,0,0,0,0,0,0,0,0,0,0,0.5253,0.5253,0.5262,0.5262,0.5261,0.524,0.5239,0.5239,0.5178,0.5177,0.5175,0.5173,0.5151,0.5152,0.5152,0,0,0,0,0,0,0,0,0,0,0,0,0,0.5246,0.5253,0.5262,0.5228,0.5225,0.524,0.5239,0.5239,0.5178,0.5176,0.5174,0.5173,0.5151,0.5152,0.5153,0.5198,0,0,0.5155,0.5156,0,0,0,0,0,0,0,0,0.5247,0.5247,0.5233,0.5231,0.5227,0.521,0.5228,0.5225,0.5179,0.5196,0.5174,0.5172,0.5172,0.5171,0.5171,0.5197,0.5196,0.5156,0.5156,0.5156,0.5157,0,0,0,0,0,0,0,0.5247,0.5247,0.5253,0.5233,0.5229,0.5215,0.5212,0.5227,0.5196,0.5195,0.519,0.5188,0.517,0.5171,0.517,0.5196,0.5156,0.5156,0.5157,0.5157,0.526,0.5262,0,0,0,0,0,0,0.5252,0.5248,0.5254,0.5252,0.5232,0.5217,0.5213,0.5217,0.5195,0.519,0.519,0.5185,0.517,0.5169,0.5169,0.5223,0.5156,0.5157,0.5158,0.5258,0.5261,0.5263,0,0,0,0,0,0,0.5253,0.5254,0.5255,0.5249,0.5248,0.5219,0.5224,0.5218,0.5218,0.5192,0.5186,0.5196,0.5168,0.5168,0.5192,0.5221,0.5158,0.5159,0.5256,0.5259,0.5262,0.533,0,0,0,0,0,0,0.5253,0.5254,0.527,0.525,0.5249,0.5277,0.5226,0.5219,0.522,0.5214,0.5196,0.5191,0.5167,0.5191,0.5193,0.5222,0.5159,0.5253,0.5257,0.5261,0.5325,0.5335,0.5344,0,0,0,0,0,0.5252,0.529,0.5272,0.5273,0.5269,0.5279,0.5278,0.525,0.5223,0.524,0.5223,0.5192,0.5218,0.5194,0.5196,0.5225,0.5251,0.5256,0.5261,0.5321,0.5333,0.5344,0,0,0,0,0,0,0.5314,0.5286,0.5266,0.5298,0.5291,0.5269,0.5289,0.5263,0.5264,0.5258,0.5223,0.5219,0.5249,0.5239,0.5213,0.5269,0.5229,0.5235,0.5275,0.5286,0.5296,0.5298,0.516,0,0,0,0,0,0.5331,0.5342,0.5317,0.5348,0.5346,0.5318,0.5322,0.53,0.5292,0.5289,0.5274,0.5268,0.5274,0.5279,0.5284,0.5323,0.532,0.5344,0.5354,0.5362,0.5367,0.539,0.5401,0.5279,0.5279,0.5279,0,0,0.5367,0.5354,0.5362,0.536,0.5353,0.5365,0.5316,0.5331,0.5341,0.5291,0.5314,0.5303,0.5293,0.5326,0.5339,0.5318,0.54,0.5368,0.5375,0.5376,0.5396,0.5408,0.5418,0.5283,0.5282,0.5281,0,0,0.5439,0.5429,0.5455,0.5449,0.5438,0.542,0.5427,0.5408,0.54,0.5421,0.5385,0.5396,0.5408,0.5404,0.5403,0.5476,0.5449,0.5478,0.5528,0.5551,0.556,0.5569,0.5597,0.5607,0.5484,0.5484,0.5484,0,0.5485,0.5503,0.5471,0.5489,0.549,0.5447,0.5473,0.5469,0.5461,0.5463,0.544,0.5456,0.5446,0.5478,0.5496,0.5496,0.5504,0.5481,0.5561,0.5569,0.5577,0.5603,0.5614,0.5488,0.5487,0.5487,0.5487,0,0.5561,0.5573,0.5595,0.559,0.5593,0.5615,0.5588,0.5595,0.5574,0.5559,0.5583,0.557,0.5572,0.5578,0.5557,0.5608,0.5596,0.5568,0.5527,0.5593,0.5617,0.5627,0.5493,0.5492,0.5491,0.549,0,0,0.567,0.5648,0.5657,0.5655,0.5641,0.5651,0.5672,0.5675,0.5683,0.5679,0.5697,0.5709,0.5684,0.5683,0.5661,0.5681,0.5742,0.565,0.5649,0.5669,0.5801,0.5823,0.5835,0.5724,0.5725,0.5727,0.5802,0,0.574,0.5774,0.5748,0.5787,0.58,0.576,0.5779,0.5773,0.576,0.5769,0.5754,0.5764,0.5729,0.5729,0.5746,0.5731,0.5769,0.5725,0.5741,0.5742,0.5747,0.5848,0.5871,0.5943,0.5811,0.5813,0.5814,0,0.5825,0.5827,0.5868,0.5854,0.5859,0.5876,0.5878,0.5887,0.588,0.5869,0.587,0.5844,0.5864,0.5824,0.5853,0.5825,0.583,0.5824,0.5826,0.5827,0.5783,0.5854,0.5965,0.5976,0.5828,0.5827,0.5826,0,0.5904,0.5916,0.5943,0.5942,0.5926,0.5939,0.5933,0.5925,0.5929,0.5931,0.5934,0.5938,0.594,0.5944,0.5921,0.5893,0.5954,0.5911,0.5947,0.5948,0.5962,0.5962,0.6077,0.5963,0.5963,0.5962,0.5962,0,0.5986,0.6013,0.5978,0.5995,0.6025,0.5995,0.6026,0.6015,0.6009,0.6024,0.5989,0.6003,0.597,0.5982,0.5963,0.5992,0.5993,0.5986,0.5981,0.599,0.5991,0.5993,0.5989,0.5965,0.5965,0.5964,0.5964,0,0.6079,0.6056,0.6083,0.6066,0.6063,0.6086,0.6072,0.6087,0.6072,0.6092,0.6095,0.6071,0.6083,0.606,0.6069,0.6056,0.6097,0.6083,0.61,0.6096,0.6134,0.6132,0.6257,0.6273,0.6147,0.6148,0.6149,0,0.6133,0.6153,0.6139,0.6147,0.6143,0.6155,0.616,0.6131,0.6138,0.6133,0.615,0.616,0.6166,0.6188,0.6172,0.6179,0.6166,0.621,0.6167,0.6177,0.617,0.617,0.6173,0.6219,0.622,0.6222,0.6223,0,0.6232,0.6221,0.6229,0.6234,0.6241,0.6243,0.6243,0.6252,0.6222,0.6231,0.6244,0.6249,0.6259,0.6269,0.6273,0.6268,0.6241,0.6236,0.6245,0.6256,0.6265,0.6263,0.6126,0.6234,0.6232,0.6232,0.6231,0.6231,0.6309,0.6326,0.6319,0.633,0.6328,0.6329,0.6344,0.6331,0.6341,0.6347,0.633,0.6347,0.6342,0.6345,0.6342,0.6356,0.6337,0.635,0.6353,0.6357,0.6365,0.6262,0.6357,0.6356,0.6356,0.6356,0.6355,0,0.6408,0.6402,0.6413,0.6415,0.6424,0.6398,0.6397,0.6407,0.6423,0.642,0.6428,0.6444,0.6455,0.644,0.6449,0.6463,0.6451,0.6467,0.6466,0.6466,0.638,0.6372,0.6476,0.6476,0.6476,0.6476,0.6476,0.6476,0.6461,0.649,0.6478,0.6506,0.65,0.6517,0.6519,0.6521,0.6519,0.6539,0.6548,0.6538,0.6532,0.654,0.655,0.6545,0.6551,0.6571,0.6563,0.6483,0.6471,0.646,0.6453,0.6572,0.6572,0.6648,0.6648,0.6649]},{"header":{"parameterUnit":"m.s-1","parameterCategory":1,"la1":30.2991,"la2":30.254,"lo1":-89.0895,"lo2":-89.0444,"dy":0.0017,"dx":0.0017,"nx":28,"ny":28,"refTime":"2023-10-21T03:00:00:Z","depth":0,"parameterNumber":3,"parameterNumberName":"V-component_of_WINDS"},"data":[0,0,0,0,0,0,0,0,0,0,0,0,0,0,0,0,0,0,0,0,0,0,0,0,0,0,0,0,0,0,0,0,0,0,0,0,0,0,0,0,0,0,0,0,0,0,0,0,0,0,0,0,0,0,0,0,0,0,-3.5862,-3.5863,0,-3.6001,-3.6002,-3.6004,-3.6017,-3.6016,-3.6015,-3.6013,-3.6153,-3.6158,-3.6163,0,0,0,0,0,0,0,0,0,0,0,0,0,-3.5607,-3.5612,-3.5862,-3.5864,-3.5865,-3.6001,-3.6003,-3.6004,-3.6018,-3.6016,-3.6014,-3.6013,-3.6151,-3.6157,-3.6163,0,0,0,0,0,0,0,0,0,0,0,0,0,-3.5729,-3.5613,-3.5862,-3.5888,-3.5892,-3.6,-3.6003,-3.6005,-3.6018,-3.6016,-3.6014,-3.6012,-3.6149,-3.6157,-3.6164,-3.6254,0,0,-3.6187,-3.6191,0,0,0,0,0,0,0,0,-3.5722,-3.5738,-3.5883,-3.5887,-3.5891,-3.599,-3.5964,-3.6088,-3.6019,-3.597,-3.6013,-3.6011,-3.61,-3.6112,-3.6142,-3.6261,-3.6267,-3.6188,-3.6193,-3.6196,-3.6198,0,0,0,0,0,0,0,-3.5714,-3.5733,-3.5917,-3.5885,-3.589,-3.5893,-3.5908,-3.5988,-3.6045,-3.5974,-3.5976,-3.5992,-3.6102,-3.6135,-3.6146,-3.6269,-3.6188,-3.6195,-3.6199,-3.6202,-3.6471,-3.6473,0,0,0,0,0,0,-3.5701,-3.5725,-3.5912,-3.5921,-3.58,-3.59,-3.5916,-3.596,-3.6045,-3.6056,-3.5994,-3.5992,-3.6123,-3.6137,-3.6151,-3.6263,-3.6196,-3.6203,-3.6207,-3.6468,-3.6471,-3.6474,0,0,0,0,0,0,-3.5695,-3.5717,-3.5907,-3.5824,-3.5848,-3.5906,-3.5955,-3.5964,-3.5997,-3.6059,-3.607,-3.6017,-3.6122,-3.614,-3.6229,-3.6268,-3.6206,-3.6213,-3.6465,-3.6469,-3.6472,-3.6487,0,0,0,0,0,0,-3.5688,-3.5715,-3.575,-3.5824,-3.5853,-3.5983,-3.5958,-3.5968,-3.601,-3.601,-3.6084,-3.6094,-3.6122,-3.6218,-3.6237,-3.6277,-3.6219,-3.6462,-3.6467,-3.6471,-3.6484,-3.6491,-3.6498,0,0,0,0,0,-3.5679,-3.5747,-3.5751,-3.5774,-3.5897,-3.5985,-3.6001,-3.6032,-3.6013,-3.6049,-3.609,-3.6092,-3.6261,-3.6227,-3.6248,-3.6292,-3.6459,-3.6465,-3.6471,-3.6481,-3.649,-3.6498,0,0,0,0,0,0,-3.5674,-3.5758,-3.5763,-3.5858,-3.5915,-3.5987,-3.6033,-3.6041,-3.6103,-3.61,-3.6135,-3.6152,-3.624,-3.6275,-3.6235,-3.6385,-3.6358,-3.6369,-3.6358,-3.6368,-3.6374,-3.6364,-3.6226,0,0,0,0,0,-3.5685,-3.575,-3.5819,-3.5896,-3.5924,-3.5974,-3.6013,-3.6033,-3.6092,-3.6116,-3.6163,-3.622,-3.6286,-3.6329,-3.6393,-3.6489,-3.6506,-3.653,-3.6537,-3.6543,-3.6551,-3.6606,-3.6617,-3.6493,-3.6493,-3.6493,0,0,-3.5706,-3.576,-3.5798,-3.5897,-3.5943,-3.6009,-3.5994,-3.6064,-3.6114,-3.6126,-3.6214,-3.625,-3.6317,-3.641,-3.6454,-3.6442,-3.6589,-3.655,-3.6554,-3.6559,-3.6613,-3.6625,-3.6635,-3.6497,-3.6496,-3.6495,0,0,-3.578,-3.5827,-3.5897,-3.5944,-3.6015,-3.6048,-3.6065,-3.6137,-3.6162,-3.6251,-3.6262,-3.6322,-3.6435,-3.6482,-3.6521,-3.6616,-3.662,-3.6636,-3.6672,-3.6725,-3.6735,-3.6744,-3.6778,-3.679,-3.6644,-3.6644,-3.6644,0,-3.5797,-3.5898,-3.5932,-3.6003,-3.6046,-3.6063,-3.6134,-3.6178,-3.6266,-3.6295,-3.6281,-3.6425,-3.6471,-3.6576,-3.66,-3.6631,-3.6651,-3.6627,-3.6731,-3.674,-3.6749,-3.6782,-3.6795,-3.6645,-3.6645,-3.6645,-3.6645,0,-3.5916,-3.5986,-3.6035,-3.6121,-3.617,-3.624,-3.6285,-3.6331,-3.6347,-3.6381,-3.6472,-3.6528,-3.6605,-3.6632,-3.6647,-3.674,-3.6731,-3.6724,-3.6698,-3.6762,-3.6793,-3.6806,-3.6647,-3.6647,-3.6646,-3.6646,0,0,-3.5988,-3.6095,-3.6112,-3.6152,-3.6232,-3.6287,-3.6359,-3.6436,-3.6474,-3.6535,-3.6597,-3.6693,-3.6688,-3.6732,-3.6754,-3.68,-3.6873,-3.6788,-3.679,-3.6802,-3.698,-3.6985,-3.6999,-3.6877,-3.688,-3.6882,-3.6975,0,-3.6071,-3.6201,-3.6235,-3.6345,-3.6411,-3.6429,-3.6492,-3.6548,-3.6583,-3.6644,-3.6682,-3.675,-3.6738,-3.6765,-3.6812,-3.6854,-3.6909,-3.6848,-3.6935,-3.6937,-3.6917,-3.7015,-3.702,-3.7105,-3.6987,-3.6989,-3.6991,0,-3.6184,-3.6249,-3.6366,-3.644,-3.6469,-3.6525,-3.6599,-3.6657,-3.6722,-3.6744,-3.6795,-3.6812,-3.6889,-3.686,-3.6966,-3.6924,-3.6962,-3.6988,-3.6992,-3.7001,-3.6967,-3.7026,-3.7132,-3.7145,-3.701,-3.7009,-3.7007,0,-3.6225,-3.6342,-3.6427,-3.6461,-3.6549,-3.6589,-3.6627,-3.669,-3.6735,-3.68,-3.6829,-3.6901,-3.6941,-3.6996,-3.7033,-3.7009,-3.7137,-3.7111,-3.7158,-3.7157,-3.7183,-3.718,-3.7296,-3.7208,-3.7207,-3.7207,-3.7207,0,-3.6313,-3.6384,-3.6447,-3.65,-3.6581,-3.662,-3.6698,-3.6737,-3.6794,-3.6854,-3.6874,-3.6931,-3.6977,-3.7039,-3.7069,-3.7153,-3.7171,-3.7191,-3.7198,-3.7189,-3.7186,-3.7213,-3.7208,-3.7211,-3.721,-3.7209,-3.7209,0,-3.6372,-3.6417,-3.6512,-3.6589,-3.661,-3.6666,-3.6732,-3.6784,-3.6821,-3.6898,-3.6918,-3.6975,-3.7051,-3.7094,-3.7188,-3.7208,-3.7302,-3.7306,-3.728,-3.7283,-3.7327,-3.7322,-3.7464,-3.7485,-3.7382,-3.7383,-3.7384,0,-3.6425,-3.648,-3.6564,-3.6607,-3.6647,-3.6715,-3.6761,-3.6802,-3.685,-3.6929,-3.6972,-3.7049,-3.7113,-3.7232,-3.7282,-3.7355,-3.7361,-3.7406,-3.7372,-3.7362,-3.7362,-3.7358,-3.7364,-3.7411,-3.7412,-3.7413,-3.7413,0,-3.6514,-3.6535,-3.6601,-3.6676,-3.6731,-3.6792,-3.6852,-3.6886,-3.6937,-3.6989,-3.7068,-3.7117,-3.7215,-3.7291,-3.7369,-3.7409,-3.742,-3.7424,-3.7439,-3.743,-3.7413,-3.7423,-3.7296,-3.742,-3.7419,-3.7419,-3.7418,-3.7418,-3.6572,-3.6623,-3.669,-3.6764,-3.6814,-3.6871,-3.6924,-3.6969,-3.7035,-3.7118,-3.7139,-3.7221,-3.7287,-3.7392,-3.7434,-3.75,-3.7492,-3.7513,-3.7518,-3.7523,-3.7524,-3.7403,-3.7514,-3.7514,-3.7514,-3.7513,-3.7513,0,-3.6662,-3.6708,-3.6775,-3.686,-3.6918,-3.6926,-3.6994,-3.7042,-3.7114,-3.7175,-3.7238,-3.7329,-3.7404,-3.7461,-3.7538,-3.7579,-3.7586,-3.7598,-3.7595,-3.7604,-3.7527,-3.7507,-3.7591,-3.7591,-3.7591,-3.7591,-3.7591,-3.7591,-3.6716,-3.6803,-3.6832,-3.6944,-3.6989,-3.7071,-3.7109,-3.7162,-3.7211,-3.7312,-3.7375,-3.7412,-3.7472,-3.7554,-3.7623,-3.7638,-3.7665,-3.7676,-3.7692,-3.7618,-3.7609,-3.7601,-3.7583,-3.7682,-3.7682,-3.7764,-3.7765,-3.7765]}]]